Regional Weather Roundup
Issued by NWS

Home | Current Version | Previous Version | Text Only | Print | Product List | Glossary Off
Versions: 1 2 3 4 5 6 7 8 9 10 11 12 13 14 15 16 17 18 19 20 21 22 23 24 25 26 27 28 29 30 31 32 33 34 35 36 37 38 39 40 41 42 43 44 45 46 47 48 49 50

000
ASUS45 KCYS 190210
RWRWY

WYOMING REGIONAL WEATHER ROUNDUP
NATIONAL WEATHER SERVICE CHEYENNE WY
800 PM MDT WED APR 18 2018

NOTE:  "FAIR" INDICATES FEW OR NO CLOUDS BELOW 12,000 FEET
WITH NO SIGNIFICANT WEATHER AND/OR OBSTRUCTIONS TO VISIBILITY.

WYZ001-190300-
YELLOWSTONE NATIONAL PARK

CITY           SKY/WX    TMP DP  RH WIND       PRES   REMARKS
LK YELLOWSTONE   N/A     30   9  41 CALM      30.16F
W YELLOWSTONE  NOT AVBL

$$
WYZ002>013-054>058-071-098>099-190300-
NORTHERN WYOMING

CITY           SKY/WX    TMP DP  RH WIND       PRES   REMARKS
JACKSON        FAIR      38  18  44 N10       30.12S WCI  31
CODY           FAIR      45  20  36 E13       30.15S
GREYBULL       FAIR      50  22  33 E6        30.15S
WORLAND        FAIR      48  23  37 NE7       30.13F
SHERIDAN       FAIR      45  25  45 CALM      30.20R
BUFFALO        FAIR      44  19  36 CALM      30.22R
GILLETTE         N/A    N/A N/A N/A MISG      30.21R
HULETT         MOCLDY    45  25  45 E3        30.24R
NEWCASTLE      FAIR      43  19  39 NE7       30.24R

$$
WYZ014>020-022>026-101>103-190300-
CENTRAL WYOMING

CITY           SKY/WX    TMP DP  RH WIND       PRES   REMARKS
BIG PINEY      FAIR      39   0  19 S7        30.13R WCI  34
PINEDALE       FAIR      37  10  32 E6        30.14S WCI  33
DUBOIS         FAIR      37  10  32 SE13      30.13R WCI  29
LANDER         FAIR      46  23  40 W9        30.10R
RIVERTON       FAIR      47  17  30 N8        30.11S
CASPER         FAIR      43  19  38 E9        30.19R
DOUGLAS        FAIR      42  23  46 NE8       30.22R

$$
WYZ021-027>030-104>119-190300-
SOUTHERN WYOMING

CITY           SKY/WX    TMP DP  RH WIND       PRES   REMARKS
EVANSTON       FAIR      44  14  29 E8        30.08S
KEMMERER       FAIR      41   5  22 E6        30.10F
FORT BRIDGER   FAIR      45   1  16 E7        30.12S
ROCK SPRINGS   FAIR      44   4  19 SE10      30.12S
DIXON          FAIR      41  26  55 NE6       30.18S
RAWLINS        FAIR      38  11  32 E6        30.18S WCI  33
SARATOGA       FAIR      41   5  22 NE5       30.18S
LARAMIE        FAIR      36  10  34 SE8       30.21R WCI  30
CHEYENNE       FAIR      42  18  37 E10       30.24R
TORRINGTON     FAIR      44  22  41 NE9       30.22R
PINE BLUFFS    FAIR      39  18  41 MISG      30.25R

$$



USA.gov is the U.S. government's official web portal to all federal, state and local government web resources and services.